Flag for Turkmenistan Weather past 2 weeks in Ashgabat, Turkmenistan

Now
57 °F

Broken clouds.


Feels Like: 57 °F
Forecast: 46 / 65 °F
Wind: 1 mph from North

Location: Ashgabat

Current Time: Mar 27, 2015 at 12:22:28 PM

Latest Report: Mar 27, 2015 at 12:00 PM


Visibility: N/A

Pressure: 30.33 "Hg

Humidity: 48%

Dew point: 37 °F

Location of AshgabatLocation

Historic Weather in Ashgabat — Graph

°F

Ashgabat temperature yesterday

Maximum temperature yesterday: 57 °F (at 12:00 AM)
Minimum temperature yesterday: 50 °F (at 10:00 AM)
Average temperature yesterday: 53 °F

Past Weeks' High & Low Weather Summary

 TemperatureHumidityPressure
High75 °F (Mar 21, 4:00 PM)100% (Mar 23, 7:30 AM)30.39 "Hg (Mar 23, 7:30 AM)
Low37 °F (Mar 16, 6:00 AM)33% (Mar 14, 4:00 PM)29.62 "Hg (Mar 23, 5:00 AM)
Average53 °F63%30.15 "Hg
* Reported Mar 12 11:00 AM — Mar 27 11:00 AM, Ashgabat, Weather by CustomWeather, © 2015

Note: Actual official high and low records may vary slightly from our data, if they occured in-between our weather recording intervals... More about our weather records

Advertising

Ashgabat weather history for previous 24 hours

 ConditionsComfort  
Time TempWeatherWind HumidityBarometerVisibility
11:00 AM
Fri, Mar 27
55 °FBroken clouds.1 mph55%30.33 "HgN/A
10:00 AM54 °FBroken clouds.1 mph54%30.36 "HgN/A
9:00 AM54 °FBroken clouds.1 mph63%30.33 "HgN/A
8:00 AM50 °FBroken clouds.No wind76%30.30 "HgN/A
7:00 AM50 °FMostly cloudy.3 mph76%30.30 "HgN/A
6:30 AM48 °FMostly cloudy.1 mph82%30.30 "HgN/A
6:00 AM50 °FOvercast.No wind76%30.30 "HgN/A
5:30 AM50 °FOvercast.3 mph76%30.30 "HgN/A
5:00 AM50 °FOvercast.3 mph82%30.30 "HgN/A
4:00 AM50 °FOvercast.3 mph82%30.27 "HgN/A
3:00 AM50 °FMostly cloudy.1 mph88%30.27 "Hg4 mi
2:00 AM50 °FOvercast.No wind88%30.27 "Hg5 mi
1:00 AM52 °FOvercast.No wind77%30.27 "Hg6 mi
12:00 AM52 °FOvercast.1 mph77%30.27 "HgN/A
11:00 PM
Thu, Mar 26
52 °FOvercast.1 mph82%30.30 "HgN/A
10:00 PM52 °FMostly cloudy.3 mph82%30.30 "HgN/A
9:30 PM52 °FSprinkles. Overcast.6 mph88%30.30 "Hg6 mi
9:00 PM52 °FSprinkles. Overcast.6 mph88%30.30 "Hg4 mi
8:30 PM52 °FSprinkles. Mostly cloudy.6 mph88%30.30 "Hg6 mi
8:00 PM52 °FSprinkles. More clouds than sun.6 mph82%30.30 "Hg4 mi
7:00 PM54 °FSprinkles. Mostly cloudy.6 mph77%30.27 "HgN/A
6:00 PM54 °FMostly cloudy.6 mph72%30.24 "HgN/A
5:00 PM55 °FMostly cloudy.3 mph63%30.24 "HgN/A
4:00 PM55 °FMostly cloudy.3 mph63%30.24 "HgN/A
3:00 PM54 °FMostly cloudy.3 mph72%30.27 "HgN/A
2:00 PM52 °FMostly cloudy.3 mph77%30.27 "HgN/A
1:00 PM52 °FSprinkles. Mostly cloudy.1 mph77%30.30 "HgN/A
12:00 PM52 °FSprinkles. Mostly cloudy.3 mph77%30.30 "HgN/A
Weather by CustomWeather, © 2015

See weather overviewHow to use our weather pages